,,PA_Meas_PMT16A,,PR_Meas_QMR101_102,,RH_Meas_QMH101,,SR_Meas_QMS101,,TA_Meas_QMH101,,GenWind,,GenWind,
time,status,PA,status,PR,status,RH,status,SR,status,TA,status,DirAvg,status,SpdAvg,
2011-11-11, 00:00:04,VALID,917.946,VALID,0,VALID,96.7107,VALID,0,VALID,19.5663,VALID,174,VALID,0.530078,
2011-11-11, 00:01:04,VALID,917.969,VALID,0,VALID,96.8021,VALID,0,VALID,19.5843,VALID,174,VALID,0.706641,
2011-11-11, 00:02:04,VALID,917.921,VALID,0,VALID,96.8174,VALID,0,VALID,19.6053,VALID,174,VALID,0.0671875,
2011-11-11, 00:03:04,VALID,917.954,VALID,0,VALID,96.8403,VALID,0,VALID,19.5843,VALID,174,VALID,0.549219,
2011-11-11, 00:04:04,VALID,917.967,VALID,0,VALID,96.825,VALID,0,VALID,19.5648,VALID,174,VALID,0.449219,
2011-11-11, 00:05:04,VALID,917.934,VALID,0,VALID,96.7716,VALID,0,VALID,19.5663,VALID,174,VALID,0.469922,
2011-11-11, 00:06:04,VALID,917.948,VALID,0,VALID,96.7716,VALID,0,VALID,19.5273,VALID,174,VALID,0.20625,
2011-11-11, 00:07:04,VALID,917.954,VALID,0,VALID,96.8555,VALID,0,VALID,19.5858,VALID,174,VALID,0.202734,
2011-11-11, 00:08:04,VALID,917.924,VALID,0,VALID,96.8936,VALID,0,VALID,19.5663,VALID,174,VALID,0,
2011-11-11, 00:09:04,VALID,917.92,VALID,0,VALID,96.886,VALID,0,VALID,19.5663,VALID,174,VALID,0.284375,
2011-11-11, 00:10:04,VALID,917.943,VALID,0,VALID,96.8631,VALID,0,VALID,19.5453,VALID,174,VALID,0.327344,
2011-11-11, 00:11:04,VALID,917.943,VALID,0,VALID,96.8326,VALID,0,VALID,19.5273,VALID,174,VALID,0.396094,
2011-11-11, 00:12:04,VALID,917.95,VALID,0,VALID,96.8631,VALID,0,VALID,19.5258,VALID,174,VALID,0.670313,
2011-11-11, 00:13:04,VALID,917.917,VALID,0,VALID,96.8174,VALID,0,VALID,19.5078,VALID,174,VALID,0.744922,
2011-11-11, 00:14:04,VALID,917.908,VALID,0,VALID,96.7716,VALID,0,VALID,19.4688,VALID,174,VALID,0.789844,
2011-11-11, 00:15:04,VALID,917.948,VALID,0,VALID,96.7945,VALID,0,VALID,19.4493,VALID,174,VALID,0.839063,
2011-11-11, 00:16:04,VALID,917.909,VALID,0,VALID,96.8555,VALID,0,VALID,19.4688,VALID,174,VALID,0.907812,
2011-11-11, 00:17:04,VALID,917.911,VALID,0,VALID,96.8174,VALID,0,VALID,19.4868,VALID,174,VALID,1.12188,
2011-11-11, 00:18:04,VALID,917.906,VALID,0,VALID,96.7564,VALID,0,VALID,19.4673,VALID,174,VALID,0.948047,
2011-11-11, 00:19:04,VALID,917.876,VALID,0,VALID,96.6802,VALID,0,VALID,19.4673,VALID,174,VALID,0.845703,
2011-11-11, 00:20:04,VALID,917.843,VALID,0,VALID,96.6954,VALID,0,VALID,19.5273,VALID,174,VALID,0.850781,
2011-11-11, 00:21:04,VALID,917.845,VALID,0,VALID,96.6268,VALID,0,VALID,19.5273,VALID,174,VALID,0.835156,
2011-11-11, 00:22:04,VALID,917.824,VALID,0,VALID,96.5201,VALID,0,VALID,19.4883,VALID,172,VALID,1.09961,
2011-11-11, 00:23:04,VALID,917.81,VALID,0,VALID,96.4515,VALID,0,VALID,19.4688,VALID,140,VALID,0.936328,
2011-11-11, 00:24:04,VALID,917.807,VALID,0,VALID,96.3829,VALID,0,VALID,19.4298,VALID,150,VALID,0.691797,
2011-11-11, 00:25:04,VALID,917.791,VALID,0,VALID,96.4362,VALID,0,VALID,19.4688,VALID,157,VALID,0.653125,
2011-11-11, 00:26:04,VALID,917.789,VALID,0,VALID,96.4286,VALID,0,VALID,19.4688,VALID,157,VALID,0.84375,
2011-11-11, 00:27:04,VALID,917.781,VALID,0,VALID,96.3981,VALID,0,VALID,19.4103,VALID,153,VALID,0.941016,
2011-11-11, 00:28:04,VALID,917.759,VALID,0,VALID,96.3829,VALID,0,VALID,19.3698,VALID,153,VALID,0.542188,
2011-11-11, 00:29:04,VALID,917.775,VALID,0,VALID,96.421,VALID,0,VALID,19.3518,VALID,152,VALID,0.968359,
2011-11-11, 00:30:04,VALID,917.778,VALID,0,VALID,96.3905,VALID,0,VALID,19.3128,VALID,149,VALID,0.501562,
2011-11-11, 00:31:04,VALID,917.779,VALID,0,VALID,96.4591,VALID,0,VALID,19.2933,VALID,149,VALID,0.642969,
2011-11-11, 00:32:04,VALID,917.782,VALID,0,VALID,96.4896,VALID,0,VALID,19.2723,VALID,149,VALID,0.417969,
2011-11-11, 00:33:04,VALID,917.774,VALID,0,VALID,96.4972,VALID,0,VALID,19.2543,VALID,149,VALID,0.648828,
2011-11-11, 00:34:04,VALID,917.788,VALID,0,VALID,96.5277,VALID,0,VALID,19.2543,VALID,149,VALID,0.680469,
2011-11-11, 00:35:04,VALID,917.779,VALID,0,VALID,96.5429,VALID,0,VALID,19.2543,VALID,149,VALID,0.589063,
2011-11-11, 00:36:04,VALID,917.79,VALID,0,VALID,96.5429,VALID,0,VALID,19.2334,VALID,149,VALID,0.812891,
2011-11-11, 00:37:04,VALID,917.746,VALID,0,VALID,96.5277,VALID,0,VALID,19.2348,VALID,149,VALID,0.829687,
2011-11-11, 00:38:04,VALID,917.767,VALID,0,VALID,96.5963,VALID,0,VALID,19.2543,VALID,149,VALID,1.15469,
2011-11-11, 00:39:04,VALID,917.786,VALID,0,VALID,96.6192,VALID,0,VALID,19.2738,VALID,142,VALID,1.01016,
2011-11-11, 00:40:04,VALID,917.795,VALID,0,VALID,96.5582,VALID,0,VALID,19.2738,VALID,141,VALID,1.00742,
2011-11-11, 00:41:04,VALID,917.768,VALID,0,VALID,96.4743,VALID,0,VALID,19.2543,VALID,141,VALID,0.666406,
2011-11-11, 00:42:04,VALID,917.779,VALID,0,VALID,96.4057,VALID,0,VALID,19.2348,VALID,141,VALID,0.416406,
2011-11-11, 00:43:04,VALID,917.748,VALID,0,VALID,96.4057,VALID,0,VALID,19.2738,VALID,141,VALID,0.438672,
2011-11-11, 00:44:04,VALID,917.742,VALID,0,VALID,96.3676,VALID,0,VALID,19.3128,VALID,141,VALID,0.340234,
2011-11-11, 00:45:04,VALID,917.729,VALID,0,VALID,96.36,VALID,0,VALID,19.3113,VALID,153,VALID,0.924609,
2011-11-11, 00:46:04,VALID,917.698,VALID,0,VALID,96.3524,VALID,0,VALID,19.3698,VALID,153,VALID,0.6875,
2011-11-11, 00:47:04,VALID,917.711,VALID,0,VALID,96.1846,VALID,0,VALID,19.3713,VALID,153,VALID,0.325391,
2011-11-11, 00:48:04,VALID,917.677,VALID,0,VALID,96.116,VALID,0,VALID,19.3908,VALID,153,VALID,0.375391,
2011-11-11, 00:49:04,VALID,917.689,VALID,0,VALID,95.9331,VALID,0,VALID,19.3518,VALID,153,VALID,0.600391,
2011-11-11, 00:50:04,VALID,917.663,VALID,0,VALID,95.8416,VALID,0,VALID,19.3323,VALID,152,VALID,0.813281,
2011-11-11, 00:51:04,VALID,917.66,VALID,0,VALID,95.7196,VALID,0,VALID,19.2933,VALID,152,VALID,0.683984,
2011-11-11, 00:52:04,VALID,917.636,VALID,0,VALID,95.6662,VALID,0,VALID,19.2348,VALID,152,VALID,0.734766,
2011-11-11, 00:53:04,VALID,917.635,VALID,0,VALID,95.7882,VALID,0,VALID,19.2543,VALID,152,VALID,0.853906,
2011-11-11, 00:54:04,VALID,917.617,VALID,0,VALID,95.8263,VALID,0,VALID,19.2543,VALID,152,VALID,0.869531,
2011-11-11, 00:55:04,VALID,917.6,VALID,0,VALID,95.8797,VALID,0,VALID,19.2543,VALID,139,VALID,0.837109,
2011-11-11, 00:56:04,VALID,917.579,VALID,0,VALID,95.8035,VALID,0,VALID,19.2543,VALID,139,VALID,0.607031,
2011-11-11, 00:57:04,VALID,917.537,VALID,0,VALID,95.712,VALID,0,VALID,19.2153,VALID,139,VALID,0.899219,
2011-11-11, 00:58:04,VALID,917.528,VALID,0,VALID,95.6357,VALID,0,VALID,19.1763,VALID,139,VALID,0.774609,
2011-11-11, 00:59:04,VALID,917.478,VALID,0,VALID,95.5519,VALID,0,VALID,19.1568,VALID,139,VALID,1.15547,
2011-11-11, 01:00:04,VALID,917.463,VALID,0,VALID,95.5138,VALID,0,VALID,19.0969,VALID,139,VALID,1.18633,
2011-11-11, 01:01:04,VALID,917.458,VALID,0,VALID,95.6053,VALID,0,VALID,19.0969,VALID,139,VALID,0.878516,
2011-11-11, 01:02:04,VALID,917.442,VALID,0,VALID,95.6815,VALID,0,VALID,19.0969,VALID,139,VALID,0.786328,
2011-11-11, 01:03:04,VALID,917.44,VALID,0,VALID,95.7044,VALID,0,VALID,19.1178,VALID,139,VALID,0.617578,
2011-11-11, 01:04:04,VALID,917.433,VALID,0,VALID,95.7501,VALID,0,VALID,19.0774,VALID,139,VALID,0.765625,
2011-11-11, 01:05:04,VALID,917.407,VALID,0,VALID,95.7806,VALID,0,VALID,19.0969,VALID,139,VALID,0.678906,
2011-11-11, 01:06:04,VALID,917.41,VALID,0,VALID,95.834,VALID,0,VALID,19.1178,VALID,139,VALID,0.742578,
2011-11-11, 01:07:04,VALID,917.42,VALID,0,VALID,95.9026,VALID,0,VALID,19.0969,VALID,139,VALID,0.805469,
2011-11-11, 01:08:04,VALID,917.422,VALID,0,VALID,95.9559,VALID,0,VALID,19.0969,VALID,139,VALID,1.07109,
2011-11-11, 01:09:04,VALID,917.396,VALID,0,VALID,95.9636,VALID,0,VALID,19.1164,VALID,139,VALID,1.00625,
2011-11-11, 01:10:04,VALID,917.373,VALID,0,VALID,95.9407,VALID,0,VALID,19.1359,VALID,139,VALID,0.711328,
2011-11-11, 01:11:04,VALID,917.355,VALID,0,VALID,95.8263,VALID,0,VALID,19.1359,VALID,139,VALID,0.467187,
2011-11-11, 01:12:04,VALID,917.375,VALID,0,VALID,95.8035,VALID,0,VALID,19.1164,VALID,139,VALID,0.144922,
2011-11-11, 01:13:04,VALID,917.356,VALID,0,VALID,95.8416,VALID,0,VALID,19.1359,VALID,139,VALID,0.454297,
2011-11-11, 01:14:04,VALID,917.348,VALID,0,VALID,95.9178,VALID,0,VALID,19.1958,VALID,139,VALID,0.339453,
2011-11-11, 01:15:04,VALID,917.343,VALID,0,VALID,95.8568,VALID,0,VALID,19.1749,VALID,139,VALID,0.321094,
2011-11-11, 01:16:04,VALID,917.318,VALID,0,VALID,95.8873,VALID,0,VALID,19.1749,VALID,163,VALID,0.468359,
2011-11-11, 01:17:04,VALID,917.302,VALID,0,VALID,95.9864,VALID,0,VALID,19.2153,VALID,147,VALID,0.361328,
2011-11-11, 01:18:04,VALID,917.261,VALID,0,VALID,95.9636,VALID,0,VALID,19.2139,VALID,147,VALID,0.551953,
2011-11-11, 01:19:04,VALID,917.26,VALID,0,VALID,95.9712,VALID,0,VALID,19.2334,VALID,147,VALID,0.328125,
2011-11-11, 01:20:04,VALID,917.272,VALID,0,VALID,96.0322,VALID,0,VALID,19.2723,VALID,147,VALID,0.422656,
2011-11-11, 01:21:04,VALID,917.251,VALID,0,VALID,95.9636,VALID,0,VALID,19.2723,VALID,147,VALID,0.420312,
2011-11-11, 01:22:04,VALID,917.24,VALID,0,VALID,96.0169,VALID,0,VALID,19.2918,VALID,147,VALID,0.512109,
2011-11-11, 01:23:05,VALID,917.252,VALID,0,VALID,96.0855,VALID,0.107441,VALID,19.3518,VALID,147,VALID,0.430859,
2011-11-11, 01:24:05,VALID,917.241,VALID,0,VALID,96.0855,VALID,0,VALID,19.4103,VALID,147,VALID,0.539453,
2011-11-11, 01:25:05,VALID,917.223,VALID,0,VALID,96.0627,VALID,0,VALID,19.4088,VALID,147,VALID,0.530859,
2011-11-11, 01:26:05,VALID,917.203,VALID,0,VALID,95.9636,VALID,0,VALID,19.4688,VALID,147,VALID,0.569141,
2011-11-11, 01:27:05,VALID,917.179,VALID,0,VALID,95.8568,VALID,0,VALID,19.4883,VALID,147,VALID,0.836328,
2011-11-11, 01:28:05,VALID,917.154,VALID,0,VALID,95.7349,VALID,0,VALID,19.4868,VALID,147,VALID,0.703906,
2011-11-11, 01:29:05,VALID,917.169,VALID,0,VALID,95.5824,VALID,0,VALID,19.5663,VALID,147,VALID,0.575781,
2011-11-11, 01:30:05,VALID,917.158,VALID,0,VALID,95.3384,VALID,0,VALID,19.5468,VALID,147,VALID,0.502734,
2011-11-11, 01:31:05,VALID,917.128,VALID,0,VALID,95.1936,VALID,0,VALID,19.5468,VALID,147,VALID,0.535547,
2011-11-11, 01:32:05,VALID,917.138,VALID,0,VALID,95.0259,VALID,0,VALID,19.5063,VALID,147,VALID,0.537109,
2011-11-11, 01:33:05,VALID,917.13,VALID,0,VALID,94.9115,VALID,0,VALID,19.5063,VALID,147,VALID,0.654297,
2011-11-11, 01:34:05,VALID,917.1,VALID,0,VALID,94.9192,VALID,0,VALID,19.5078,VALID,147,VALID,0.731641,
2011-11-11, 01:35:05,VALID,917.075,VALID,0,VALID,94.9268,VALID,0,VALID,19.5078,VALID,144,VALID,0.767187,
2011-11-11, 01:36:05,VALID,917.077,VALID,0,VALID,94.9039,VALID,0,VALID,19.4883,VALID,140,VALID,0.729297,
2011-11-11, 01:37:05,VALID,917.033,VALID,0,VALID,94.9268,VALID,0.107441,VALID,19.4868,VALID,139,VALID,0.810938,
2011-11-11, 01:38:05,VALID,917.045,VALID,0,VALID,94.9268,VALID,0,VALID,19.4883,VALID,139,VALID,0.811328,
2011-11-11, 01:39:05,VALID,917.016,VALID,0,VALID,94.881,VALID,0,VALID,19.4688,VALID,139,VALID,0.620313,
2011-11-11, 01:40:05,VALID,917.005,VALID,0,VALID,94.881,VALID,0,VALID,19.4688,VALID,138,VALID,0.713281,
2011-11-11, 01:41:05,VALID,916.983,VALID,0,VALID,94.9039,VALID,0,VALID,19.4883,VALID,138,VALID,1.00273,
2011-11-11, 01:42:05,VALID,916.983,VALID,0,VALID,94.8887,VALID,0,VALID,19.4478,VALID,138,VALID,0.783984,
2011-11-11, 01:43:05,VALID,916.973,VALID,0,VALID,94.8734,VALID,0,VALID,19.4673,VALID,138,VALID,0.676562,
2011-11-11, 01:44:05,VALID,916.987,VALID,0,VALID,94.8887,VALID,0,VALID,19.4883,VALID,138,VALID,0.978125,
2011-11-11, 01:45:05,VALID,917.004,VALID,0,VALID,94.8963,VALID,0,VALID,19.4883,VALID,138,VALID,0.958984,
2011-11-11, 01:46:05,VALID,917.03,VALID,0,VALID,94.9039,VALID,0,VALID,19.4868,VALID,138,VALID,0.927734,
2011-11-11, 01:47:05,VALID,917.017,VALID,0,VALID,94.7896,VALID,0,VALID,19.4868,VALID,138,VALID,0.739062,
2011-11-11, 01:48:05,VALID,917.032,VALID,0,VALID,94.7743,VALID,0.107441,VALID,19.5063,VALID,138,VALID,0.719531,
2011-11-11, 01:49:05,VALID,917.005,VALID,0,VALID,94.7514,VALID,0,VALID,19.5258,VALID,138,VALID,0.538281,
2011-11-11, 01:50:05,VALID,917.004,VALID,0,VALID,94.599,VALID,0,VALID,19.5453,VALID,138,VALID,0.33125,
2011-11-11, 01:51:05,VALID,917.003,VALID,0,VALID,94.5685,VALID,0,VALID,19.5453,VALID,138,VALID,0.695313,
2011-11-11, 01:52:05,VALID,917.007,VALID,0,VALID,94.4922,VALID,0,VALID,19.5453,VALID,138,VALID,0.364062,
2011-11-11, 01:53:05,VALID,916.958,VALID,0,VALID,94.4922,VALID,0,VALID,19.5663,VALID,138,VALID,0.601953,
2011-11-11, 01:54:05,VALID,916.999,VALID,0,VALID,94.5532,VALID,0,VALID,19.5258,VALID,138,VALID,0.560938,
2011-11-11, 01:55:05,VALID,916.987,VALID,0,VALID,94.6371,VALID,0,VALID,19.5063,VALID,138,VALID,0.790625,
2011-11-11, 01:56:05,VALID,916.975,VALID,0,VALID,94.82,VALID,0,VALID,19.5063,VALID,138,VALID,0.665234,
2011-11-11, 01:57:05,VALID,916.981,VALID,0,VALID,95.0106,VALID,0,VALID,19.5273,VALID,138,VALID,0.746484,
2011-11-11, 01:58:05,VALID,916.975,VALID,0,VALID,95.1402,VALID,0,VALID,19.5063,VALID,138,VALID,0.649219,
2011-11-11, 01:59:05,VALID,916.966,VALID,0,VALID,95.2698,VALID,0,VALID,19.5258,VALID,138,VALID,0.921875,
2011-11-11, 02:00:05,VALID,916.952,VALID,0,VALID,95.4375,VALID,0,VALID,19.5468,VALID,138,VALID,0.702344,
2011-11-11, 02:01:05,VALID,916.925,VALID,0,VALID,95.5062,VALID,0,VALID,19.5663,VALID,138,VALID,0.767187,
2011-11-11, 02:02:05,VALID,916.917,VALID,0,VALID,95.4375,VALID,0,VALID,19.5063,VALID,138,VALID,0.575391,
2011-11-11, 02:03:05,VALID,916.874,VALID,0,VALID,95.3156,VALID,0,VALID,19.4868,VALID,138,VALID,0.716016,
2011-11-11, 02:04:05,VALID,916.886,VALID,0,VALID,95.2927,VALID,0,VALID,19.4283,VALID,138,VALID,0.744141,
2011-11-11, 02:05:05,VALID,916.867,VALID,0,VALID,95.5519,VALID,0,VALID,19.4478,VALID,138,VALID,0.864844,
2011-11-11, 02:06:05,VALID,916.876,VALID,0,VALID,95.6739,VALID,0,VALID,19.4883,VALID,138,VALID,0.917188,
2011-11-11, 02:07:05,VALID,916.861,VALID,0,VALID,95.8492,VALID,0,VALID,19.5468,VALID,138,VALID,1.04297,
2011-11-11, 02:08:05,VALID,916.888,VALID,0,VALID,95.9178,VALID,0,VALID,19.5663,VALID,138,VALID,0.953516,
2011-11-11, 02:09:05,VALID,916.845,VALID,0,VALID,95.9254,VALID,0,VALID,19.5648,VALID,138,VALID,0.95625,
2011-11-11, 02:10:05,VALID,916.86,VALID,0,VALID,95.9178,VALID,0,VALID,19.6053,VALID,138,VALID,0.927734,
2011-11-11, 02:11:05,VALID,916.836,VALID,0,VALID,95.8187,VALID,0,VALID,19.6053,VALID,138,VALID,0.594531,
2011-11-11, 02:12:05,VALID,916.848,VALID,0,VALID,95.8187,VALID,0,VALID,19.6053,VALID,138,VALID,0.570313,
2011-11-11, 02:13:05,VALID,916.829,VALID,0,VALID,95.7958,VALID,0,VALID,19.6038,VALID,138,VALID,0.151562,
2011-11-11, 02:14:05,VALID,916.815,VALID,0,VALID,95.7577,VALID,0,VALID,19.6248,VALID,138,VALID,0.605469,
2011-11-11, 02:15:05,VALID,916.793,VALID,0,VALID,95.7044,VALID,0,VALID,19.6038,VALID,138,VALID,0.322656,
2011-11-11, 02:16:05,VALID,916.779,VALID,0,VALID,95.6205,VALID,0,VALID,19.6053,VALID,138,VALID,0.364453,
2011-11-11, 02:17:05,VALID,916.739,VALID,0,VALID,95.5824,VALID,0,VALID,19.6248,VALID,138,VALID,0.475,
2011-11-11, 02:18:05,VALID,916.736,VALID,0,VALID,95.5062,VALID,0,VALID,19.6248,VALID,138,VALID,0.246094,
2011-11-11, 02:19:05,VALID,916.721,VALID,0,VALID,95.4452,VALID,0,VALID,19.6248,VALID,138,VALID,0.178516,
2011-11-11, 02:20:05,VALID,916.737,VALID,0,VALID,95.4452,VALID,0,VALID,19.6233,VALID,138,VALID,0.429688,
2011-11-11, 02:21:05,VALID,916.703,VALID,0,VALID,95.3994,VALID,0,VALID,19.6443,VALID,138,VALID,0.734375,
2011-11-11, 02:22:05,VALID,916.685,VALID,0,VALID,95.2927,VALID,0,VALID,19.6428,VALID,138,VALID,0.583594,
2011-11-11, 02:23:05,VALID,916.656,VALID,0,VALID,95.1555,VALID,0,VALID,19.6428,VALID,138,VALID,0.616016,
2011-11-11, 02:24:05,VALID,916.655,VALID,0,VALID,95.0945,VALID,0,VALID,19.6623,VALID,138,VALID,0.427344,
2011-11-11, 02:25:05,VALID,916.621,VALID,0,VALID,95.0259,VALID,0,VALID,19.7013,VALID,138,VALID,0.0632813,
2011-11-11, 02:26:05,VALID,916.63,VALID,0,VALID,94.8429,VALID,0,VALID,19.7013,VALID,138,VALID,0.00351562,
2011-11-11, 02:27:05,VALID,916.606,VALID,0,VALID,94.5837,VALID,0,VALID,19.7028,VALID,138,VALID,0,
2011-11-11, 02:28:05,VALID,916.626,VALID,0,VALID,94.3398,VALID,0,VALID,19.6818,VALID,138,VALID,0,
2011-11-11, 02:29:05,VALID,916.592,VALID,0,VALID,94.3855,VALID,0,VALID,19.7013,VALID,138,VALID,0,
2011-11-11, 02:30:05,VALID,916.606,VALID,0,VALID,94.2788,VALID,0,VALID,19.6818,VALID,138,VALID,0.00585938,
2011-11-11, 02:31:05,VALID,916.651,VALID,0,VALID,94.3626,VALID,0,VALID,19.6818,VALID,138,VALID,0.397656,
2011-11-11, 02:32:05,VALID,916.616,VALID,0,VALID,94.5075,VALID,0,VALID,19.6623,VALID,138,VALID,0.235547,
2011-11-11, 02:33:05,VALID,916.637,VALID,0,VALID,94.6066,VALID,0,VALID,19.6818,VALID,138,VALID,0,
2011-11-11, 02:34:05,VALID,916.641,VALID,0,VALID,94.6752,VALID,0,VALID,19.6623,VALID,138,VALID,0,
2011-11-11, 02:35:05,VALID,916.624,VALID,0,VALID,94.6676,VALID,0,VALID,19.6623,VALID,138,VALID,0.148828,
2011-11-11, 02:36:05,VALID,916.6,VALID,0,VALID,94.7209,VALID,0,VALID,19.6833,VALID,138,VALID,0.584375,
2011-11-11, 02:37:05,VALID,916.558,VALID,0,VALID,94.7896,VALID,0,VALID,19.6818,VALID,138,VALID,0.483203,
2011-11-11, 02:38:05,VALID,916.543,VALID,0,VALID,94.8505,VALID,0,VALID,19.7028,VALID,138,VALID,0.410547,
2011-11-11, 02:39:05,VALID,916.567,VALID,0,VALID,94.881,VALID,0,VALID,19.7013,VALID,138,VALID,0.389453,
2011-11-11, 02:40:05,VALID,916.549,VALID,0,VALID,94.9268,VALID,0,VALID,19.7208,VALID,138,VALID,0.100781,
2011-11-11, 02:41:05,VALID,916.542,VALID,0,VALID,94.942,VALID,0,VALID,19.7403,VALID,138,VALID,0.279687,
2011-11-11, 02:42:05,VALID,916.517,VALID,0,VALID,94.9192,VALID,0,VALID,19.8003,VALID,138,VALID,0,
2011-11-11, 02:43:05,VALID,916.524,VALID,0,VALID,94.8124,VALID,0,VALID,19.8183,VALID,138,VALID,0,
2011-11-11, 02:44:05,VALID,916.502,VALID,0,VALID,94.6752,VALID,0,VALID,19.8183,VALID,138,VALID,0.003125,
2011-11-11, 02:45:05,VALID,916.516,VALID,0,VALID,94.6066,VALID,0,VALID,19.8378,VALID,138,VALID,0.235156,
2011-11-11, 02:46:05,VALID,916.505,VALID,0,VALID,94.5837,VALID,0,VALID,19.8378,VALID,138,VALID,0,
2011-11-11, 02:47:05,VALID,916.485,VALID,0,VALID,94.5532,VALID,0,VALID,19.8588,VALID,138,VALID,0,
2011-11-11, 02:48:05,VALID,916.493,VALID,0,VALID,94.4389,VALID,0,VALID,19.8183,VALID,138,VALID,0.111719,
2011-11-11, 02:49:05,VALID,916.446,VALID,0,VALID,94.3169,VALID,0,VALID,19.8003,VALID,138,VALID,0.434375,
2011-11-11, 02:50:05,VALID,916.44,VALID,0,VALID,94.3017,VALID,0,VALID,19.7223,VALID,138,VALID,0.653516,
2011-11-11, 02:51:05,VALID,916.402,VALID,0,VALID,94.3093,VALID,0,VALID,19.6638,VALID,138,VALID,0.478516,
2011-11-11, 02:52:05,VALID,916.411,VALID,0,VALID,94.4008,VALID,0,VALID,19.5453,VALID,138,VALID,0.385547,
2011-11-11, 02:53:05,VALID,916.455,VALID,0,VALID,94.7514,VALID,0,VALID,19.5273,VALID,138,VALID,0.158984,
2011-11-11, 02:54:05,VALID,916.414,VALID,0,VALID,95.0869,VALID,0,VALID,19.5063,VALID,138,VALID,0,
2011-11-11, 02:55:05,VALID,916.428,VALID,0,VALID,95.247,VALID,0,VALID,19.5063,VALID,138,VALID,0,
2011-11-11, 02:56:05,VALID,916.46,VALID,0,VALID,95.2317,VALID,0,VALID,19.4868,VALID,138,VALID,0.549609,
2011-11-11, 02:57:05,VALID,916.461,VALID,0,VALID,95.2927,VALID,0,VALID,19.4883,VALID,138,VALID,0.650391,
2011-11-11, 02:58:05,VALID,916.465,VALID,0,VALID,95.3003,VALID,0,VALID,19.4283,VALID,138,VALID,0.391406,
2011-11-11, 02:59:05,VALID,916.487,VALID,0,VALID,95.3461,VALID,0,VALID,19.4283,VALID,138,VALID,0.302734,
2011-11-11, 03:00:05,VALID,916.456,VALID,0,VALID,95.3689,VALID,0,VALID,19.4088,VALID,138,VALID,0,
2011-11-11, 03:01:05,VALID,916.483,VALID,0,VALID,95.3613,VALID,0,VALID,19.4088,VALID,138,VALID,0,
2011-11-11, 03:02:05,VALID,916.5,VALID,0,VALID,94.9725,VALID,0,VALID,19.3308,VALID,138,VALID,0,
2011-11-11, 03:03:05,VALID,916.483,VALID,0,VALID,94.8963,VALID,0,VALID,19.2933,VALID,138,VALID,0,
2011-11-11, 03:04:05,VALID,916.46,VALID,0,VALID,94.9268,VALID,0,VALID,19.2528,VALID,138,VALID,0,
2011-11-11, 03:05:05,VALID,916.479,VALID,0,VALID,94.8963,VALID,0,VALID,19.2139,VALID,138,VALID,0,
2011-11-11, 03:06:05,VALID,916.478,VALID,0,VALID,95.2088,VALID,0,VALID,19.1944,VALID,138,VALID,0,
2011-11-11, 03:07:05,VALID,916.469,VALID,0,VALID,95.4223,VALID,0,VALID,19.2153,VALID,138,VALID,0,
2011-11-11, 03:08:05,VALID,916.494,VALID,0,VALID,95.6662,VALID,0,VALID,19.2348,VALID,138,VALID,0,
2011-11-11, 03:09:05,VALID,916.482,VALID,0,VALID,95.8263,VALID,0,VALID,19.2348,VALID,138,VALID,0,
2011-11-11, 03:10:05,VALID,916.498,VALID,0,VALID,95.895,VALID,0,VALID,19.2543,VALID,138,VALID,0,
2011-11-11, 03:11:05,VALID,916.5,VALID,0,VALID,95.8492,VALID,0,VALID,19.2348,VALID,138,VALID,0,
2011-11-11, 03:12:05,VALID,916.511,VALID,0,VALID,95.6129,VALID,0,VALID,19.1359,VALID,138,VALID,0,
2011-11-11, 03:13:05,VALID,916.482,VALID,0,VALID,95.5976,VALID,0,VALID,19.1164,VALID,138,VALID,0,
2011-11-11, 03:14:05,VALID,916.445,VALID,0,VALID,95.7349,VALID,0,VALID,19.1568,VALID,138,VALID,0.402344,
2011-11-11, 03:15:05,VALID,916.434,VALID,0,VALID,95.8873,VALID,0.107441,VALID,19.1763,VALID,138,VALID,0.365625,
2011-11-11, 03:16:05,VALID,916.381,VALID,0,VALID,95.9864,VALID,0,VALID,19.1763,VALID,138,VALID,0.272266,
2011-11-11, 03:17:05,VALID,916.366,VALID,0,VALID,96.0855,VALID,0,VALID,19.1749,VALID,138,VALID,0.357031,
2011-11-11, 03:18:05,VALID,916.3,VALID,0,VALID,95.9788,VALID,0,VALID,19.1568,VALID,138,VALID,0.584375,
2011-11-11, 03:19:05,VALID,916.308,VALID,0,VALID,96.177,VALID,0,VALID,19.1958,VALID,138,VALID,0.712109,
2011-11-11, 03:20:05,VALID,916.315,VALID,0,VALID,96.2837,VALID,0,VALID,19.2139,VALID,138,VALID,0.912891,
2011-11-11, 03:21:05,VALID,916.31,VALID,0,VALID,96.3371,VALID,0,VALID,19.2738,VALID,138,VALID,1.13125,
2011-11-11, 03:22:05,VALID,916.293,VALID,0,VALID,96.3295,VALID,0,VALID,19.2738,VALID,138,VALID,1.13398,
2011-11-11, 03:23:05,VALID,916.309,VALID,0,VALID,96.2914,VALID,0,VALID,19.3323,VALID,138,VALID,0.884766,
2011-11-11, 03:24:05,VALID,916.322,VALID,0,VALID,96.3371,VALID,0,VALID,19.3503,VALID,138,VALID,0.885547,
2011-11-11, 03:25:05,VALID,916.295,VALID,0,VALID,96.2914,VALID,0,VALID,19.4298,VALID,138,VALID,0.748047,
2011-11-11, 03:26:05,VALID,916.33,VALID,0,VALID,96.1313,VALID,0,VALID,19.4493,VALID,138,VALID,0.441016,
2011-11-11, 03:27:05,VALID,916.313,VALID,0,VALID,95.9254,VALID,0,VALID,19.4298,VALID,138,VALID,0.607813,
2011-11-11, 03:28:05,VALID,916.3,VALID,0,VALID,95.7044,VALID,0,VALID,19.4103,VALID,138,VALID,0.774219,
2011-11-11, 03:29:05,VALID,916.3,VALID,0,VALID,95.5367,VALID,0,VALID,19.3908,VALID,138,VALID,0.65,
2011-11-11, 03:30:05,VALID,916.28,VALID,0,VALID,95.3766,VALID,0,VALID,19.3503,VALID,138,VALID,0.669531,
2011-11-11, 03:31:05,VALID,916.31,VALID,0,VALID,95.2851,VALID,0,VALID,19.3713,VALID,138,VALID,0.583203,
2011-11-11, 03:32:05,VALID,916.316,VALID,0,VALID,95.1783,VALID,0,VALID,19.3518,VALID,138,VALID,0.914453,
2011-11-11, 03:33:05,VALID,916.353,VALID,0,VALID,95.1783,VALID,0,VALID,19.3128,VALID,138,VALID,0.882813,
2011-11-11, 03:34:05,VALID,916.363,VALID,0,VALID,95.3232,VALID,0,VALID,19.2918,VALID,151,VALID,0.700781,
2011-11-11, 03:35:05,VALID,916.347,VALID,0,VALID,95.3613,VALID,0,VALID,19.2933,VALID,151,VALID,0.858203,
2011-11-11, 03:36:05,VALID,916.355,VALID,0,VALID,95.3689,VALID,0,VALID,19.2543,VALID,151,VALID,0.571484,
2011-11-11, 03:37:05,VALID,916.367,VALID,0,VALID,95.468,VALID,0,VALID,19.1944,VALID,151,VALID,0.390234,
2011-11-11, 03:38:05,VALID,916.363,VALID,0,VALID,95.5367,VALID,0,VALID,19.1958,VALID,151,VALID,0.461328,
2011-11-11, 03:39:05,VALID,916.336,VALID,0,VALID,95.6739,VALID,0,VALID,19.1763,VALID,151,VALID,0.626172,
2011-11-11, 03:40:05,VALID,916.315,VALID,0,VALID,95.8187,VALID,0,VALID,19.1958,VALID,151,VALID,0.591406,
2011-11-11, 03:41:05,VALID,916.349,VALID,0,VALID,95.9788,VALID,0,VALID,19.2153,VALID,151,VALID,0.623828,
2011-11-11, 03:42:05,VALID,916.311,VALID,0,VALID,96.0855,VALID,0,VALID,19.2153,VALID,151,VALID,0.372266,
2011-11-11, 03:43:05,VALID,916.311,VALID,0,VALID,96.1313,VALID,0,VALID,19.2348,VALID,151,VALID,0.372656,
2011-11-11, 03:44:05,VALID,916.289,VALID,0,VALID,96.1694,VALID,0,VALID,19.2348,VALID,151,VALID,0.00585938,
2011-11-11, 03:45:05,VALID,916.293,VALID,0,VALID,96.1465,VALID,0,VALID,19.2348,VALID,151,VALID,0.260547,